Location: New Frontier Mobile Home Park
(32.8448°N, 116.9675°W)
Time: 23:15:55
(UTC+00:00)

Cosmos 2369 - Pass Details

Date: 14 July 2020
Orbit: 839 x 857 km, 71.0° (Epoch: 05 August)

Event Time Altitude Azimuth Distance (km) Brightness Sun altitude
Rises 10:12:55 0° 341° (NNW) 3,430 7.3 -26.3°
Reaches altitude 10° 10:15:23 10° 343° (NNW) 2,492 6.6 -25.9°
Maximum altitude 10:21:07 77° 69° (ENE) 882 3.8 -25.2°
Enters shadow 10:23:53 32° 150° (SSE) 1,430 4.7 -24.9°
